Starlink 30261

operational
NORAD ID: 57523 Int'l Des: 2023-115 Owner: SPXS Country: US Constellation: starlink
LEOCIRCULAR

关于 Starlink 30261

正在加载描述...

实时位置

正在加载3D地球...

即将过境

高度历史

Altitude vs Time

uPlot chart will show altitude changes over time

两行轨道根数

1 57523U 23115C 25306.46266110 .00002176 00000-0 17614-3 0 9994
2 57523 43.0040 336.2577 0001279 269.2627 90.8069 15.02531442123174
Epoch: Nov 2, 2025 • Age: 25 hours

当前状态

高度 560.8 km
速度 7.58 km/s
星下点 -11.92°S, 86.15°E
发射日期 Aug 8, 2023
运行时间 2.2 years
类型 internet

技术详情

分类 Payload
质量 730.00 kg
干质量 700.00 kg
总质量 730.00 kg
长度 0.30 m
直径 4.10 m
跨度 29.00 m
形状 Box + pan
制造商 SPXS
平台类型 Starlink V2M
阶段状态 In Orbit
所有者/国家 SPXS/US

大型星座

Loading constellations...